User: anonymous   Login
Location: Unspecified
(0.0000°N, 0.0000°E)
Time: 21:50:36
(UTC+00:00)
Language:

STARLINK-30363 - Orbit

View from above orbital plane
View from above orbital plane
View from above satellite
View from above satellite

Ground track
Ground track

The orbit is defined by the following mean orbital elements,

1 57744U          26145.17023269 +.00000000 +00000-0 -34974-4 0 00000
2 57744  43.0068  86.0201 0001841 252.7040 107.3610 15.27573819    07
Epoch (UTC): 25 May 2026 04:05:08
Eccentricity: 0.0001841
inclination: 43.0068°
perigee height: 482 km
apogee height: 484 km
right ascension of ascending node: 86.0201°
argument of perigee: 252.7040°
revolutions per day: 15.27573819
mean anomaly at epoch: 107.3610°

The dashed part of the orbit path shows where the satellite is in the earth's shadow,  

DLR